FW4701 Weather Reports


Display with metric or nautical units.
time (UTC)temp
F
wind
direction
speed
MPH
gust
MPH
rain 1hr
in
rain 24hr
in
rain mn
in
humidity
%
barometer
mb
20260905191008 88 74 4.0 12.0 0.00 0.00 0.00 66 1014.9
20260905190510 89 52 2.0 8.0 0.00 0.00 0.00 68 1014.9
20260905190031 100 266 0.0 6.0 0.00 0.00 0.00 24 1012.4
20260905190024 88 28 2.0 8.0 0.00 0.00 0.00 69 1014.9
20260905185509 88 19 4.0 8.0 0.00 0.00 0.00 68 1015.0
20260905185012 88 338 2.0 8.0 0.00 0.00 0.00 68 1014.9
20260905184528 88 5 1.0 11.0 0.00 0.00 0.00 68 1014.9
20260905184011 88 301 3.0 11.0 0.00 0.00 0.00 69 1014.9
20260905183513 88 324 2.0 11.0 0.00 0.00 0.00 68 1015.0
20260905183026 89 32 3.0 10.0 0.00 0.00 0.00 70 1014.9
20260905183024 96 89 3.0 8.0 0.00 0.00 0.00 28 1013.2
20260905182514 88 110 1.0 11.0 0.00 0.00 0.00 71 1014.9
20260905182016 88 293 5.0 11.0 0.00 0.00 0.00 70 1014.9
20260905181524 97 114 6.0 12.0 0.00 0.00 0.00 29 1013.3
20260905181510 88 246 1.0 9.0 0.00 0.00 0.00 71 1014.9
20260905181006 88 313 3.0 10.0 0.00 0.00 0.00 71 1014.7
20260905180504 87 5 2.0 10.0 0.00 0.00 0.00 73 1014.9
20260905180020 97 215 0.0 2.0 0.00 0.00 0.00 29 1013.5
20260905180016 88 5 4.0 10.0 0.00 0.00 0.00 71 1014.7
20260905175509 87 37 1.0 8.0 0.00 0.00 0.00 74 1014.8
20260905175012 87 25 4.0 10.0 0.00 0.00 0.00 71 1014.9
20260905174525 88 16 2.0 10.0 0.00 0.00 0.00 71 1014.8
20260905174518 97 12 0.0 8.0 0.00 0.00 0.00 27 1013.7
20260905174013 88 340 4.0 10.0 0.00 0.00 0.00 70 1014.8
20260905173512 88 51 3.0 10.0 0.00 0.00 0.00 72 1014.9
20260905173025 88 39 2.0 10.0 0.00 0.00 0.00 72 1014.9
20260905173015 97 133 0.0 5.0 0.00 0.00 0.00 29 1013.8
20260905172514 88 332 2.0 8.0 0.00 0.00 0.00 72 1014.9
20260905172016 87 49 3.0 7.0 0.00 0.00 0.00 72 1014.9
20260905171539 87 53 2.0 8.0 0.00 0.00 0.00 74 1015.0
20260905171523 96 92 0.0 9.0 0.00 0.00 0.00 29 1014.0
20260905171016 87 70 3.0 9.0 0.00 0.00 0.00 75 1015.1
20260905170506 86 15 3.0 10.0 0.00 0.00 0.00 74 1015.0
20260905170012 87 28 3.0 10.0 0.00 0.00 0.00 75 1015.0
20260905165503 87 36 3.0 9.0 0.00 0.00 0.00 73 1015.1
20260905165009 87 350 4.0 8.0 0.00 0.00 0.00 75 1015.1
20260905164519 87 46 3.0 9.0 0.00 0.00 0.00 76 1015.2
20260905164517 97 210 0.0 5.0 0.00 0.00 0.00 30 1014.1
20260905164009 86 32 2.0 11.0 0.00 0.00 0.00 76 1015.2
20260905163510 87 352 4.0 11.0 0.00 0.00 0.00 74 1015.2
20260905163026 87 345 4.0 10.0 0.00 0.00 0.00 75 1015.2
20260905163007 98 214 0.0 2.0 0.00 0.00 0.00 31 1014.2
20260905162514 87 75 2.0 8.0 0.00 0.00 0.00 75 1015.1
20260905162014 87 12 3.0 8.0 0.00 0.00 0.00 74 1015.2
20260905161530 87 76 2.0 10.0 0.00 0.00 0.00 75 1015.2
20260905161501 97 225 0.0 2.0 0.00 0.00 0.00 32 1014.2
20260905161016 87 33 4.0 10.0 0.00 0.00 0.00 76 1015.1
20260905160515 87 14 3.0 10.0 0.00 0.00 0.00 75 1015.0
20260905160057 95 136 0.0 1.0 0.00 0.00 0.00 34 1014.3
20260905160033 87 33 2.0 11.0 0.00 0.00 0.00 76 1015.0
20260905155519 87 63 4.0 11.0 0.00 0.00 0.00 76 1015.0
20260905155003 87 57 2.0 6.0 0.00 0.00 0.00 77 1015.0
20260905154603 95 226 0.0 2.0 0.00 0.00 0.00 35 1014.3
20260905154514 87 342 1.0 6.0 0.00 0.00 0.00 77 1015.0
20260905154008 87 9 1.0 9.0 0.00 0.00 0.00 77 1015.0
20260905153509 87 53 2.0 9.0 0.00 0.00 0.00 77 1014.9
20260905153047 93 230 0.0 2.0 0.00 0.00 0.00 38 1014.3
20260905153030 87 11 3.0 7.0 0.00 0.00 0.00 76 1014.8
20260905152512 87 352 2.0 5.0 0.00 0.00 0.00 79 1014.7
20260905152012 87 350 2.0 9.0 0.00 0.00 0.00 78 1014.6
20260905151541 92 212 0.0 2.0 0.00 0.00 0.00 39 1014.3
20260905151528 87 42 3.0 9.0 0.00 0.00 0.00 77 1014.6
20260905151011 87 22 2.0 8.0 0.00 0.00 0.00 78 1014.6
20260905150516 86 13 2.0 5.0 0.00 0.00 0.00 79 1014.6
20260905150037 91 214 0.0 3.0 0.00 0.00 0.00 41 1014.2
20260905150030 86 131 1.0 5.0 0.00 0.00 0.00 79 1014.6
20260905145517 86 11 1.0 8.0 0.00 0.00 0.00 78 1014.7
20260905145016 86 22 1.0 8.0 0.00 0.00 0.00 79 1014.6
20260905144531 89 214 0.0 2.0 0.00 0.00 0.00 44 1014.2
20260905144010 86 325 0.0 3.0 0.00 0.00 0.00 81 1014.5
20260905143510 85 12 1.0 5.0 0.00 0.00 0.00 80 1014.5
20260905143025 88 201 0.0 0.0 0.00 0.00 0.00 50 1014.1
20260905143022 85 17 2.0 5.0 0.00 0.00 0.00 78 1014.4
20260905142510 85 21 2.0 4.0 0.00 0.00 0.00 79 1014.4
20260905142012 85 15 1.0 5.0 0.00 0.00 0.00 80 1014.4
20260905141526 85 9 2.0 5.0 0.00 0.00 0.00 82 1014.5
20260905141520 85 125 1.0 5.0 0.00 0.00 0.00 54 1014.1
20260905141013 84 33 1.0 4.0 0.00 0.00 0.00 83 1014.4
20260905140513 84 244 0.0 4.0 0.00 0.00 0.00 83 1014.6
20260905140030 83 352 1.0 3.0 0.00 0.00 0.00 85 1014.7
20260905140016 82 129 1.0 6.0 0.00 0.00 0.00 57 1014.0
20260905135515 83 246 0.0 3.0 0.00 0.00 0.00 84 1014.9
20260905135015 83 352 1.0 3.0 0.00 0.00 0.00 84 1015.0
20260905134531 83 244 1.0 4.0 0.00 0.00 0.00 85 1015.0
20260905134512 83 117 0.0 2.0 0.00 0.00 0.00 55 1013.9
20260905134009 82 315 0.0 4.0 0.00 0.00 0.00 85 1014.9
20260905133508 82 134 1.0 5.0 0.00 0.00 0.00 86 1014.7
20260905133015 81 248 2.0 5.0 0.00 0.00 0.00 88 1014.7
20260905133006 81 117 0.0 3.0 0.00 0.00 0.00 56 1014.1
20260905132512 80 205 0.0 3.0 0.00 0.00 0.00 89 1014.6
20260905132011 80 282 0.0 3.0 0.00 0.00 0.00 90 1014.5
20260905131522 79 191 0.0 2.0 0.00 0.00 0.00 91 1014.5
20260905131503 79 115 0.0 2.0 0.00 0.00 0.00 56 1013.9
20260905131000 79 279 0.0 2.0 0.00 0.00 0.00 92 1014.3
20260905130506 78 181 0.0 2.0 0.00 0.00 0.00 93 1014.2
20260905130101 79 115 0.0 0.0 0.00 0.00 0.00 52 1013.8
20260905130003 78 177 0.0 2.0 0.00 0.00 0.00 93 1014.1
20260905125504 78 158 0.0 2.0 0.00 0.00 0.00 93 1014.1
20260905125006 78 190 0.0 2.0 0.00 0.00 0.00 94 1014.3
20260905124601 76 115 0.0 0.0 0.00 0.00 0.00 49 1013.7
20260905124520 78 188 0.0 2.0 0.00 0.00 0.00 94 1014.2
20260905124005 77 185 0.0 2.0 0.00 0.00 0.00 95 1014.2
20260905123505 77 195 0.0 2.0 0.00 0.00 0.00 95 1014.1
20260905123053 0 0.0 0.0 0.00 0.00 0.00 1013.6
20260905123012 77 249 0.0 0.0 0.00 0.00 0.00 95 1014.1
20260905122508 77 249 0.0 0.0 0.00 0.00 0.00 95 1014.1
20260905122013 76 249 0.0 0.0 0.00 0.00 0.00 95 1014.0
20260905121547 0 0.0 0.0 0.00 0.00 0.00 1013.5
20260905121519 76 249 0.0 0.0 0.00 0.00 0.00 95 1014.0
20260905121008 76 249 0.0 0.0 0.00 0.00 0.00 95 1014.0
20260905120512 76 249 0.0 1.0 0.00 0.00 0.00 94 1014.0
20260905120042 0 0.0 0.0 0.00 0.00 0.00 1013.5
20260905120003 76 249 0.0 1.0 0.00 0.00 0.00 94 1013.9
20260905115503 76 249 0.0 0.0 0.00 0.00 0.00 94 1013.8
20260905115004 76 249 0.0 0.0 0.00 0.00 0.00 94 1013.7
20260905114537 0 0.0 0.0 0.00 0.00 0.00 1013.3
20260905114506 76 249 0.0 0.0 0.00 0.00 0.00 94 1013.8
20260905114004 76 249 0.0 0.0 0.00 0.00 0.00 93 1013.8
20260905113505 76 249 0.0 0.0 0.00 0.00 0.00 93 1013.9
20260905113031 0 0.0 0.0 0.00 0.00 0.00 1013.3
20260905113008 76 249 0.0 0.0 0.00 0.00 0.00 93 1013.9
20260905112507 76 249 0.0 1.0 0.00 0.00 0.00 93 1013.8
20260905112007 76 249 0.0 1.0 0.00 0.00 0.00 93 1013.8
20260905111528 0 0.0 0.0 0.00 0.00 0.00 1013.2
20260905111519 76 249 0.0 1.0 0.00 0.00 0.00 93 1013.7
20260905111009 76 249 0.0 1.0 0.00 0.00 0.00 92 1013.6
20260905110509 76 249 0.0 1.0 0.00 0.00 0.00 92 1013.5
20260905110023 76 249 0.0 1.0 0.00 0.00 0.00 92 1013.5
20260905110021 0 0.0 0.0 0.00 0.00 0.00 1013.1
20260905105514 76 249 0.0 0.0 0.00 0.00 0.00 91 1013.5
20260905105004 76 249 0.0 1.0 0.00 0.00 0.00 91 1013.5
20260905104516 0 108 0.0 0.0 0.00 0.00 0.00 1013.2
20260905104505 76 249 0.0 1.0 0.00 0.00 0.00 91 1013.5
20260905104003 77 249 0.0 0.0 0.00 0.00 0.00 90 1013.6
20260905103506 77 249 0.0 0.0 0.00 0.00 0.00 90 1013.6
20260905103012 76 115 0.0 1.0 0.00 0.00 0.00 62 1013.0
20260905103007 77 249 0.0 0.0 0.00 0.00 0.00 90 1013.7
20260905102504 77 249 0.0 0.0 0.00 0.00 0.00 90 1013.7
20260905102003 77 249 0.0 0.0 0.00 0.00 0.00 89 1013.7
20260905101514 77 249 0.0 0.0 0.00 0.00 0.00 89 1013.7
20260905101510 76 115 0.0 2.0 0.00 0.00 0.00 63 1013.1
20260905101007 77 249 0.0 0.0 0.00 0.00 0.00 89 1013.7
20260905100510 77 249 0.0 2.0 0.00 0.00 0.00 89 1013.7
20260905100018 77 249 0.0 2.0 0.00 0.00 0.00 89 1013.7
20260905100008 76 117 0.0 1.0 0.00 0.00 0.00 63 1013.1
20260905095511 77 321 0.0 3.0 0.00 0.00 0.00 89 1013.7
20260905095011 78 321 0.0 3.0 0.00 0.00 0.00 89 1013.7
20260905094525 77 91 0.0 4.0 0.00 0.00 0.00 89 1013.7
20260905094506 76 116 0.0 1.0 0.00 0.00 0.00 61 1013.1
20260905094015 77 175 1.0 4.0 0.00 0.00 0.00 89 1013.6
20260905093503 77 275 0.0 2.0 0.00 0.00 0.00 89 1013.6
20260905093004 76 116 0.0 1.0 0.00 0.00 0.00 61 1013.0
20260905092504 77 271 0.0 2.0 0.00 0.00 0.00 89 1013.4
20260905092003 77 311 0.0 2.0 0.00 0.00 0.00 89 1013.4
20260905091511 77 293 0.0 1.0 0.00 0.00 0.00 89 1013.4
20260905091502 77 116 0.0 1.0 0.00 0.00 0.00 62 1013.0
20260905091002 77 293 0.0 2.0 0.00 0.00 0.00 89 1013.5
20260905090507 78 293 0.0 2.0 0.00 0.00 0.00 89 1013.5
20260905090017 78 271 0.0 2.0 0.00 0.00 0.00 89 1013.4
20260905085510 78 271 0.0 2.0 0.00 0.00 0.00 89 1013.5
20260905085012 78 265 0.0 2.0 0.00 0.00 0.00 88 1013.6
20260905084658 77 116 0.0 1.0 0.00 0.00 0.00 61 1012.9
20260905084519 78 275 0.0 2.0 0.00 0.00 0.00 88 1013.5
20260905084017 78 269 0.0 3.0 0.00 0.00 0.00 88 1013.6
20260905083513 78 240 0.0 3.0 0.00 0.00 0.00 88 1013.6
20260905083054 77 117 0.0 2.0 0.00 0.00 0.00 60 1012.8
20260905083033 78 241 0.0 3.0 0.00 0.00 0.00 88 1013.6
20260905082503 78 294 0.0 3.0 0.00 0.00 0.00 88 1013.5
20260905082004 78 294 1.0 3.0 0.00 0.00 0.00 88 1013.5
20260905081552 77 116 0.0 0.0 0.00 0.00 0.00 59 1013.0
20260905081505 78 234 0.0 3.0 0.00 0.00 0.00 88 1013.4
20260905081005 78 272 0.0 3.0 0.00 0.00 0.00 88 1013.4
20260905080506 78 241 1.0 4.0 0.00 0.00 0.00 88 1013.4
20260905080049 77 116 0.0 1.0 0.00 0.00 0.00 60 1012.9
20260905080015 78 266 0.0 4.0 0.00 0.00 0.00 88 1013.4
20260905075510 78 251 0.0 2.0 0.00 0.00 0.00 88 1013.4
20260905075009 78 310 0.0 2.0 0.00 0.00 0.00 88 1013.4
20260905074548 78 116 0.0 3.0 0.00 0.00 0.00 60 1013.0
20260905074520 78 241 0.0 4.0 0.00 0.00 0.00 88 1013.5
20260905074012 78 252 1.0 4.0 0.00 0.00 0.00 88 1013.4
20260905073512 78 260 0.0 4.0 0.00 0.00 0.00 89 1013.4
20260905073044 77 116 0.0 1.0 0.00 0.00 0.00 60 1013.0
20260905073026 78 237 0.0 4.0 0.00 0.00 0.00 89 1013.4
20260905072513 78 271 0.0 3.0 0.00 0.00 0.00 89 1013.3
20260905072014 78 262 1.0 2.0 0.00 0.00 0.00 89 1013.4
20260905071542 76 117 0.0 1.0 0.00 0.00 0.00 61 1013.2
20260905071506 78 242 0.0 2.0 0.00 0.00 0.00 88 1013.4
20260905071006 78 246 0.0 2.0 0.00 0.00 0.00 88 1013.5
20260905070502 79 246 0.0 2.0 0.00 0.00 0.00 88 1013.5
20260905070039 76 116 0.0 0.0 0.00 0.00 0.00 59 1013.2
20260905070015 79 26 0.0 2.0 0.00 0.00 0.00 88 1013.6
20260905065505 79 26 0.0 1.0 0.00 0.00 0.00 88 1013.6
20260905065007 79 26 0.0 1.0 0.00 0.00 0.00 87 1013.6
20260905064534 77 116 0.0 0.0 0.00 0.00 0.00 57 1013.2
20260905064515 79 26 0.0 2.0 0.00 0.00 0.00 87 1013.6
20260905064012 79 26 0.0 2.0 0.00 0.00 0.00 88 1013.7
20260905063511 79 352 0.0 2.0 0.00 0.00 0.00 88 1013.7
20260905063029 79 116 0.0 0.0 0.00 0.00 0.00 56 1013.3
20260905063023 80 258 0.0 2.0 0.00 0.00 0.00 87 1013.7
20260905062512 80 258 0.0 2.0 0.00 0.00 0.00 87 1013.7
20260905062014 80 275 0.0 2.0 0.00 0.00 0.00 87 1013.8
20260905061527 80 277 0.0 2.0 0.00 0.00 0.00 87 1013.9
20260905061524 79 116 0.0 1.0 0.00 0.00 0.00 55 1013.3
20260905061015 80 192 0.0 2.0 0.00 0.00 0.00 87 1013.8
20260905060516 80 206 0.0 2.0 0.00 0.00 0.00 87 1013.8
20260905060021 80 116 0.0 1.0 0.00 0.00 0.00 54 1013.3
20260905060011 80 207 0.0 2.0 0.00 0.00 0.00 86 1013.8
20260905055505 80 272 0.0 2.0 0.00 0.00 0.00 86 1013.9
20260905055004 80 243 0.0 2.0 0.00 0.00 0.00 86 1013.9
20260905054518 80 122 3.0 4.0 0.00 0.00 0.00 54 1013.3
20260905054514 80 221 0.0 2.0 0.00 0.00 0.00 86 1013.9
20260905054009 80 222 0.0 2.0 0.00 0.00 0.00 86 1014.0
20260905053508 80 186 0.0 2.0 0.00 0.00 0.00 86 1014.0
20260905053021 81 252 0.0 2.0 0.00 0.00 0.00 86 1013.9
20260905053015 80 113 0.0 3.0 0.00 0.00 0.00 54 1013.2
20260905052512 81 286 0.0 3.0 0.00 0.00 0.00 86 1014.0
20260905052013 81 256 0.0 3.0 0.00 0.00 0.00 86 1014.1
20260905051530 81 247 0.0 3.0 0.00 0.00 0.00 86 1014.2
20260905051510 81 125 0.0 1.0 0.00 0.00 0.00 52 1013.1
20260905051015 81 134 0.0 3.0 0.00 0.00 0.00 87 1014.2
20260905050514 81 186 0.0 2.0 0.00 0.00 0.00 87 1014.2
20260905050028 81 203 0.0 2.0 0.00 0.00 0.00 87 1014.2
20260905050006 82 125 0.0 1.0 0.00 0.00 0.00 51 1013.0
20260905045517 81 250 0.0 2.0 0.00 0.00 0.00 86 1014.2
20260905045006 81 232 0.0 1.0 0.00 0.00 0.00 86 1014.3
20260905044513 81 252 0.0 1.0 0.00 0.00 0.00 86 1014.3
20260905044507 82 125 0.0 1.0 0.00 0.00 0.00 51 1013.1
20260905044002 81 265 0.0 1.0 0.00 0.00 0.00 86 1014.2
20260905043503 82 265 0.0 2.0 0.00 0.00 0.00 86 1014.3
20260905043006 82 265 0.0 2.0 0.00 0.00 0.00 86 1014.3
20260905043003 83 126 0.0 2.0 0.00 0.00 0.00 50 1013.2
20260905042503 82 265 0.0 2.0 0.00 0.00 0.00 85 1014.3
20260905042003 82 265 0.0 1.0 0.00 0.00 0.00 85 1014.3
20260905041613 83 146 0.0 1.0 0.00 0.00 0.00 49 1013.2
20260905041506 82 265 0.0 1.0 0.00 0.00 0.00 85 1014.3
20260905041003 82 265 0.0 1.0 0.00 0.00 0.00 85 1014.4
20260905040505 82 265 0.0 1.0 0.00 0.00 0.00 85 1014.4
20260905040100 84 130 0.0 4.0 0.00 0.00 0.00 49 1013.1
20260905040007 82 265 0.0 1.0 0.00 0.00 0.00 84 1014.4
20260905035504 82 265 0.0 1.0 0.00 0.00 0.00 84 1014.4
20260905035003 82 265 0.0 1.0 0.00 0.00 0.00 83 1014.4
20260905034602 84 131 0.0 1.0 0.00 0.00 0.00 48 1013.2
20260905034510 83 265 0.0 1.0 0.00 0.00 0.00 83 1014.4
20260905034004 83 265 0.0 1.0 0.00 0.00 0.00 82 1014.5
20260905033503 83 265 0.0 1.0 0.00 0.00 0.00 80 1014.5
20260905033056 85 146 0.0 2.0 0.00 0.00 0.00 46 1013.3
20260905033007 83 265 0.0 0.0 0.00 0.00 0.00 80 1014.5
20260905032502 83 265 0.0 0.0 0.00 0.00 0.00 81 1014.6
20260905032004 83 265 0.0 0.0 0.00 0.00 0.00 81 1014.5
20260905031653 86 155 0.0 3.0 0.00 0.00 0.00 46 1013.2
20260905031508 83 265 0.0 0.0 0.00 0.00 0.00 80 1014.5
20260905031003 83 265 0.0 0.0 0.00 0.00 0.00 80 1014.6
20260905030503 83 265 0.0 0.0 0.00 0.00 0.00 81 1014.7
20260905030008 83 265 0.0 0.0 0.00 0.00 0.00 81 1014.6
20260905025503 83 265 0.0 0.0 0.00 0.00 0.00 81 1014.5
20260905025004 83 265 0.0 0.0 0.00 0.00 0.00 82 1014.5
20260905024550 87 160 0.0 5.0 0.00 0.00 0.00 43 1012.8
20260905024507 83 265 0.0 0.0 0.00 0.00 0.00 83 1014.4
20260905024002 83 265 0.0 1.0 0.00 0.00 0.00 84 1014.3
20260905023504 83 265 0.0 1.0 0.00 0.00 0.00 86 1014.3
20260905023049 87 143 2.0 6.0 0.00 0.00 0.00 42 1012.5
20260905023008 83 265 0.0 0.0 0.00 0.00 0.00 87 1014.2
20260905022506 83 265 0.0 0.0 0.00 0.00 0.00 86 1014.2
20260905022006 83 265 0.0 0.0 0.00 0.00 0.00 83 1014.2
20260905021546 88 117 1.0 9.0 0.00 0.00 0.00 40 1012.3
20260905021506 83 265 0.0 0.0 0.00 0.00 0.00 82 1014.2
20260905021003 83 265 0.0 0.0 0.00 0.00 0.00 82 1014.2
20260905020505 83 265 0.0 0.0 0.00 0.00 0.00 82 1014.2
20260905020049 88 130 4.0 9.0 0.00 0.00 0.00 38 1012.2
20260905020012 83 265 0.0 0.0 0.00 0.00 0.00 81 1014.1
20260905015507 83 264 0.0 0.0 0.00 0.00 0.00 81 1014.2
20260905015004 84 264 0.0 0.0 0.00 0.00 0.00 80 1014.0
20260905014541 89 117 5.0 8.0 0.00 0.00 0.00 36 1011.9
20260905014508 84 264 0.0 1.0 0.00 0.00 0.00 80 1013.9
20260905014006 84 265 0.0 1.0 0.00 0.00 0.00 80 1013.7
20260905013503 84 265 0.0 0.0 0.00 0.00 0.00 79 1013.6
20260905013048 90 129 4.0 8.0 0.00 0.00 0.00 36 1011.6
20260905013011 84 265 0.0 0.0 0.00 0.00 0.00 79 1013.5
20260905012504 85 265 0.0 0.0 0.00 0.00 0.00 78 1013.4
20260905012005 85 265 0.0 0.0 0.00 0.00 0.00 77 1013.4
20260905011614 91 121 2.0 6.0 0.00 0.00 0.00 35 1011.5
20260905011514 85 265 0.0 0.0 0.00 0.00 0.00 77 1013.5
20260905011006 85 265 0.0 0.0 0.00 0.00 0.00 76 1013.5
20260905010504 86 265 0.0 0.0 0.00 0.00 0.00 75 1013.4
20260905010038 91 186 1.0 8.0 0.00 0.00 0.00 34 1011.3
20260905010010 86 265 0.0 0.0 0.00 0.00 0.00 75 1013.5
20260905005505 86 265 0.0 0.0 0.00 0.00 0.00 74 1013.4
20260905005004 86 265 0.0 0.0 0.00 0.00 0.00 74 1013.4
20260905004536 93 133 1.0 7.0 0.00 0.00 0.00 34 1011.3
20260905004513 87 265 0.0 0.0 0.00 0.00 0.00 73 1013.4
20260905004005 87 265 0.0 2.0 0.00 0.00 0.00 73 1013.5
20260905003506 87 265 0.0 2.0 0.00 0.00 0.00 72 1013.4
20260905003036 94 191 2.0 12.0 0.00 0.00 0.00 33 1011.2
20260905003008 87 215 0.0 2.0 0.00 0.00 0.00 71 1013.4
20260905002503 88 211 0.0 2.0 0.00 0.00 0.00 72 1013.4
20260905002003 88 211 0.0 1.0 0.00 0.00 0.00 71 1013.3
20260905001541 94 124 6.0 17.0 0.00 0.00 0.00 32 1010.9
20260905001511 88 211 0.0 2.0 0.00 0.00 0.00 70 1013.4
20260905001004 89 211 0.0 2.0 0.00 0.00 0.00 70 1013.5
20260905000504 89 258 0.0 2.0 0.00 0.00 0.00 69 1013.4
20260905000028 95 178 0.0 13.0 0.00 0.00 0.00 30 1010.7
20260905000016 89 266 0.0 2.0 0.00 0.00 0.00 69 1013.3
20260904235503 89 248 0.0 2.0 0.00 0.00 0.00 68 1013.5
20260904235003 90 248 0.0 2.0 0.00 0.00 0.00 68 1013.5
20260904234526 96 118 6.0 10.0 0.00 0.00 0.00 29 1010.6
20260904234513 90 281 0.0 3.0 0.00 0.00 0.00 68 1013.6
20260904234004 90 229 1.0 6.0 0.00 0.00 0.00 67 1013.6
20260904233504 90 281 1.0 6.0 0.00 0.00 0.00 66 1013.5
20260904233024 96 103 10.0 15.0 0.00 0.00 0.00 29 1010.6
20260904233012 91 264 1.0 6.0 0.00 0.00 0.00 65 1013.5
20260904232507 91 238 1.0 6.0 0.00 0.00 0.00 65 1013.5
20260904232008 91 248 2.0 6.0 0.00 0.00 0.00 65 1013.5
20260904231521 98 127 2.0 11.0 0.00 0.00 0.00 27 1010.6
20260904231513 91 250 0.0 6.0 0.00 0.00 0.00 64 1013.6
20260904231005 92 221 1.0 4.0 0.00 0.00 0.00 64 1013.5
20260904230507 92 216 1.0 4.0 0.00 0.00 0.00 64 1013.5
20260904230034 92 269 0.0 6.0 0.00 0.00 0.00 64 1013.6
20260904230019 100 146 0.0 5.0 0.00 0.00 0.00 26 1010.5
20260904225507 92 211 2.0 6.0 0.00 0.00 0.00 64 1013.7
20260904225008 92 223 1.0 3.0 0.00 0.00 0.00 64 1013.7
20260904224515 92 230 0.0 3.0 0.00 0.00 0.00 63 1013.6
20260904224512 99 162 0.0 5.0 0.00 0.00 0.00 28 1010.6
20260904224004 93 188 0.0 3.0 0.00 0.00 0.00 63 1013.6
20260904223504 93 246 0.0 4.0 0.00 0.00 0.00 62 1013.6
20260904223015 93 233 2.0 4.0 0.00 0.00 0.00 61 1013.5
20260904223009 97 115 9.0 14.0 0.00 0.00 0.00 29 1010.7
20260904222506 94 221 1.0 4.0 0.00 0.00 0.00 60 1013.4
20260904222004 94 232 1.0 7.0 0.00 0.00 0.00 59 1013.5
20260904221508 94 284 3.0 8.0 0.00 0.00 0.00 60 1013.4
20260904221003 94 276 3.0 8.0 0.00 0.00 0.00 60 1013.4
20260904220507 94 193 3.0 9.0 0.00 0.00 0.00 60 1013.3
20260904220014 94 190 4.0 9.0 0.00 0.00 0.00 60 1013.3
20260904220004 98 129 4.0 14.0 0.00 0.00 0.00 29 1010.8
20260904215508 94 184 4.0 8.0 0.00 0.00 0.00 60 1013.4
20260904215007 94 182 4.0 7.0 0.00 0.00 0.00 60 1013.4
20260904214600 97 129 1.0 12.0 0.00 0.00 0.00 27 1011.0
20260904214516 94 196 2.0 10.0 0.00 0.00 0.00 60 1013.3
20260904214005 94 193 4.0 10.0 0.00 0.00 0.00 61 1013.3
20260904213512 95 190 3.0 7.0 0.00 0.00 0.00 59 1013.4
20260904213100 97 191 4.0 14.0 0.00 0.00 0.00 26 1011.1
20260904213019 95 253 1.0 8.0 0.00 0.00 0.00 60 1013.4
20260904212508 95 287 4.0 8.0 0.00 0.00 0.00 59 1013.4
20260904212002 95 232 2.0 8.0 0.00 0.00 0.00 58 1013.4
20260904211553 99 131 0.0 14.0 0.00 0.00 0.00 27 1011.2
20260904211505 95 137 4.0 8.0 0.00 0.00 0.00 59 1013.5
20260904211002 95 311 2.0 10.0 0.00 0.00 0.00 57 1013.5
20260904210504 96 182 2.0 10.0 0.00 0.00 0.00 58 1013.5
20260904210048 98 187 1.0 8.0 0.00 0.00 0.00 29 1011.4
20260904210019 96 180 2.0 8.0 0.00 0.00 0.00 56 1013.6
20260904205504 96 195 1.0 9.0 0.00 0.00 0.00 57 1013.7
20260904205004 96 184 4.0 9.0 0.00 0.00 0.00 58 1013.7
20260904204544 97 148 2.0 12.0 0.00 0.00 0.00 29 1011.5
20260904204516 95 221 2.0 6.0 0.00 0.00 0.00 59 1013.7
20260904204008 95 170 1.0 7.0 0.00 0.00 0.00 58 1013.7
20260904203508 95 162 2.0 7.0 0.00 0.00 0.00 56 1013.9
20260904203040 98 171 0.0 12.0 0.00 0.00 0.00 27 1011.8
20260904203019 95 207 2.0 7.0 0.00 0.00 0.00 57 1014.0
20260904202507 95 143 1.0 7.0 0.00 0.00 0.00 57 1014.1
20260904202009 95 132 2.0 6.0 0.00 0.00 0.00 58 1014.1
20260904201536 97 146 3.0 11.0 0.00 0.00 0.00 28 1011.9
20260904201516 95 142 2.0 6.0 0.00 0.00 0.00 58 1014.1
20260904201003 95 192 2.0 6.0 0.00 0.00 0.00 58 1014.1
20260904200503 95 165 2.0 7.0 0.00 0.00 0.00 59 1014.2
20260904200033 98 87 9.0 13.0 0.00 0.00 0.00 26 1012.2
20260904200016 94 90 2.0 8.0 0.00 0.00 0.00 58 1014.3
20260904195504 94 166 5.0 8.0 0.00 0.00 0.00 60 1014.4
20260904195006 94 173 2.0 7.0 0.00 0.00 0.00 63 1014.4
20260904194528 97 115 5.0 15.0 0.00 0.00 0.00 29 1012.3
20260904194513 93 109 2.0 7.0 0.00 0.00 0.00 62 1014.4
20260904194010 93 111 2.0 6.0 0.00 0.00 0.00 63 1014.5
20260904193508 93 99 1.0 7.0 0.00 0.00 0.00 63 1014.6
20260904193027 98 90 4.0 9.0 0.00 0.00 0.00 29 1012.6
20260904193020 94 119 3.0 7.0 0.00 0.00 0.00 63 1014.6
20260904192512 93 165 2.0 8.0 0.00 0.00 0.00 63 1014.6
20260904192009 93 111 2.0 8.0 0.00 0.00 0.00 64 1014.7
20260904191522 96 138 0.0 9.0 0.00 0.00 0.00 35 1012.9
20260904191520 93 142 1.0 7.0 0.00 0.00 0.00 64 1014.8